This is the latest recevied weather packets stored in our database for station/object KX4O-13. If no packets are shown the sender has not sent any weather packets the latest 10 day(s).
| Time | Temp. | Humidity | Pressure | Rain* | Wind** | Luminosity | Snow |
|---|---|---|---|---|---|---|---|
| 1777801857 | 3.33° C | 73% | 1016.2 hPa | 0 mm | - | 0 W/m² | - |
| 1777801557 | 3.89° C | 72% | 1016 hPa | 0 mm | - | 0 W/m² | - |
| 1777801257 | 3.89° C | 72% | 1016 hPa | 0 mm | - | 0 W/m² | - |
| 1777800957 | 3.89° C | 71% | 1015.9 hPa | 0 mm | - | 0 W/m² | - |
| 1777800657 | 4.44° C | 71% | 1015.9 hPa | 0 mm | - | 0 W/m² | - |
| 1777800357 | 4.44° C | 70% | 1015.7 hPa | 0 mm | - | 0 W/m² | - |
| 1777800057 | 4.44° C | 70% | 1015.7 hPa | 0 mm | - | 0 W/m² | - |
| 1777799757 | 4.44° C | 70% | 1015.7 hPa | 0 mm | - | 0 W/m² | - |
| 1777799457 | 4.44° C | 70% | 1015.7 hPa | 0 mm | - | 0 W/m² | - |
| 1777799157 | 4.44° C | 70% | 1015.7 hPa | 0 mm | - | 0 W/m² | - |
| 1777798857 | 4.44° C | 69% | 1015.7 hPa | 0 mm | - | 0 W/m² | - |
| 1777798557 | 4.44° C | 68% | 1015.7 hPa | 0 mm | - | 0 W/m² | - |
| 1777798257 | 5° C | 68% | 1015.6 hPa | 0 mm | - | 0 W/m² | - |
| 1777797957 | 5° C | 68% | 1015.7 hPa | 0 mm | - | 0 W/m² | - |
| 1777797657 | 5° C | 69% | 1015.7 hPa | 0 mm | - | 0 W/m² | - |
| 1777797357 | 4.44° C | 70% | 1015.6 hPa | 0 mm | - | 0 W/m² | - |
| 1777797057 | 4.44° C | 71% | 1015.6 hPa | 0 mm | - | 0 W/m² | - |
| 1777796757 | 4.44° C | 71% | 1015.4 hPa | 0 mm | - | 0 W/m² | - |
| 1777796457 | 4.44° C | 71% | 1015.3 hPa | 0 mm | - | 0 W/m² | - |
| 1777796157 | 3.89° C | 70% | 1015.2 hPa | 0 mm | - | 0 W/m² | - |
| 1777795857 | 4.44° C | 71% | 1015.2 hPa | 0 mm | - | 0 W/m² | - |
| 1777795557 | 3.89° C | 71% | 1015.2 hPa | 0 mm | - | 0 W/m² | - |
| 1777795257 | 3.89° C | 72% | 1015.3 hPa | 0 mm | - | 0 W/m² | - |
| 1777794957 | 3.89° C | 72% | 1015.2 hPa | 0 mm | - | 0 W/m² | - |
| 1777794657 | 3.89° C | 71% | 1015.2 hPa | 0 mm | - | 0 W/m² | - |
* Rain latest hour (hover to see other rain measurements)
** Current wind speed in m/s (hover to see current wind gust speed)